Weather in Khrestyshche

Ukraine / Kharkiv Region     49°33′00″N   35°31′01″E
temp.,
°C
wind,
m/s
gust,
m/s
humid.,
%
clouds,
%
prec.,
mm/h
press.,
hPa
HPBL,
m
30 june, thu
thu3000:00+19e3773100 0.0 1017146
03:00+17nne2284100 0.1 101818
06:00+18e4770100 0.1 1016152
09:00+15ene3592100 1.3 1018165
12:00+17e248697 1.1 1018233
15:00+25e335232 1.2 10161650
18:00+25ene335227 0.0 10151458
21:00+19ne11750 0.3 101611
1 july, fri
fri100:00+16nne33820 0.0 101734
03:00+15nne34830 0.0 101751
06:00+15nne35809 0.0 1017111
09:00+22n57540 0.0 1017732
12:00+25nne67410 0.0 10171918
15:00+26nne67390 0.0 10162154
18:00+24nne58431 0.0 10172121
21:00+18ne410580 0.0 1019266
2 july, sat
sat200:00+13ene39750 0.0 1020156
03:00+10nne22760 0.0 102121
06:00+12nne37700 0.0 1022160
09:00+19nne57460 0.0 10221036
12:00+22nne56371 0.0 10221613
15:00+24n563517 0.0 10211878
18:00+23nnw57400 0.0 10211751
21:00+17n23670 0.0 102117
3 july, sun
sun300:00+15nnw33800 0.0 102025
03:00+14nnw34820 0.0 102150
06:00+15nw377622 0.0 1020149
09:00+22nw46571 0.0 1020609
12:00+26nnw55464 0.0 10191753
15:00+28nnw444060 0.0 10182022
18:00+27nnw334311 0.0 10171801
21:00+21nnw22655 0.0 101811
4 july, mon
mon400:00+19wnw23719 0.0 101719
03:00+17nnw228210 0.0 101715
06:00+19nnw248198 0.0 101794
09:00+25nnw3459100 0.0 1017565
12:00+28nnw3348100 0.0 10171602
15:00+29n5442100 0.0 10162418
18:00+28nne444687 0.0 10161446
21:00+22ene226989 0.1 101713